Regional Weather Roundup
Issued by NWS Wakefield, VA

Home | Current Version | Previous Version | Text Only | Print | Product List | Glossary Off
Versions: 1 2 3 4 5 6 7 8 9 10 11 12 13 14 15 16 17 18 19 20 21 22 23 24 25 26 27 28 29 30 31 32 33 34 35 36 37 38 39 40 41 42 43 44 45 46 47 48 49 50

000
ASUS41 KAKQ 261514
RWRAKQ

REGIONAL WEATHER ROUNDUP
NATIONAL WEATHER SERVICE WAKEFIELD VA
1100 AM EDT SUN APR 26 2015

Note: "fair" indicates few or no clouds below 12,000 feet with no
significant weather and/or obstructions to visibility. * = Denotes
station may not report precipitation (e.g., rain,snow,etc.),
thunder or fog.

VAZ042-051-052>054-056-261600-
NORTHERN VIRGINIA

CITY           SKY/WX    TMP DP  RH WIND       PRES   REMARKS
WASH NATIONAL  MOSUNNY   57  37  47 NE5       29.73R
DULLES         MOSUNNY   55  37  50 N10       29.73R
FORT BELVOIR   MOSUNNY   55  39  54 VRB2      29.73R
QUANTICO       CLOUDY    53  38  56 E8        29.74R
FREDERICKSBRG* CLOUDY    52  42  68 W7        29.73R
STAFFORD*      CLOUDY    52  39  61 W7        29.77R
WARRENTON      MOSUNNY   54  41  61 N5        29.74R
CULPEPER*      PTSUNNY   54  39  58 CALM      29.75R
MANASSAS*      SUNNY     54  37  54 NE3       29.73S
LEESBURG*      MOSUNNY   54  37  54 N9        29.75R
WINCHESTER     MOSUNNY   52  32  46 CALM      29.75R
FRONT ROYAL*   PTSUNNY   46  39  76 N3        29.75R
LURAY*         CLOUDY    50  41  71 N5        29.76R
$$

VAZ048-049-060>072-079>083-261600-
CENTRAL AND SOUTH CENTRAL VIRGINIA

CITY           SKY/WX    TMP DP  RH WIND       PRES   REMARKS
RICHMOND       CLOUDY    49  42  77 N8        29.73R
CHESTERFIELD*  CLOUDY    48  34  57 N6        29.75R
PETERSBURG*    CLOUDY    48  45  87 N7        29.74R
HANOVER        CLOUDY    48  43  82 VRB6      29.75R
TAPPAHANNOCK*  PTSUNNY   50  42  72 N6        29.73R
QUINTON*       CLOUDY    47  44  87 NW5       29.72R
CHARLOTTSVILLE CLOUDY    48  41  76 CALM      29.74R
GORDONSVILLE*  CLOUDY    48  40  74 NE3       29.74R
ORANGE*        CLOUDY    50  43  76 N6        29.75S
LOUISA*        PTSUNNY   48  43  81 N5        29.73R
BUMPASS*       CLOUDY    47  42  81 CALM      29.74R
FARMVILLE*     CLOUDY    47  46  99 NE6       29.74R
CREWE*         CLOUDY    46  43  91 N3        29.73R
FORT PICKETT*  CLOUDY    45  44  94 N7        29.73R
CHASE CITY*    CLOUDY    48  47  98 N7        29.72S
CLARKSVILLE*   CLOUDY    45  43  93 N5        29.72R
SOUTH HILL*    CLOUDY    46  44  93 N7        29.77R
LAWRENCEVILLE* CLOUDY    46  45  93 N6        29.71R
EMPORIA*       CLOUDY    46  45  93 N7        29.74R
$$

VAZ088>098-261600-
SOUTHEAST VIRGINIA

CITY           SKY/WX    TMP DP  RH WIND       PRES   REMARKS
NORFOLK        CLOUDY    50  44  80 NE15      29.68R
VIRGINIA BEACH CLOUDY    51  44  77 NE15      29.68R
NORFOLK NAVAL  CLOUDY    53  42  66 NE14      29.71R
WEST POINT*    CLOUDY    53  44  73 N6        29.73R
SALUDA*        CLOUDY    49  42  76 NW7       29.71R
NEWPORT NEWS   CLOUDY    54  41  61 NE10      29.71R
LANGLEY AFB    CLOUDY    50  39  66 NE14      29.70R
FORT EUSTIS    CLOUDY    51  45  79 VRB7      29.69R
WILLIAMSBURG*  MOSUNNY   54  52  94 CALM      29.72R
HR EXEC AP*    CLOUDY    48  45  87 NE3       29.70R
FRANKLIN*      CLOUDY    48  45  90 N6        29.71R
WAKEFIELD      CLOUDY    49  44  83 N5        29.72R
$$

VAZ020-022-025-037-045-261600-
WEST CENTRAL AND SOUTHWEST VIRGINIA

CITY           SKY/WX    TMP DP  RH WIND       PRES   REMARKS
STAUNTON*      CLOUDY    46  40  78 N6        29.77R
WAYNESBORO*    CLOUDY    42  40  91 N5        29.74R
HOT SPRINGS VA FOG       36  36 100 E7        29.67R VSB<1/4
LYNCHBURG      CLOUDY    44  41  89 N6        29.75R
DANVILLE       CLOUDY    48  43  82 NE9       29.74R
SOUTH BOSTON*  CLOUDY    46  44  91 N5        29.73R
MARTINSVILLE   CLOUDY    46  46 100 NE7       29.76R
ROANOKE        CLOUDY    45  41  86 NE5       29.76R
BLACKSBURG     DRIZZLE   41  40  95 E3        29.74S
DUBLIN*        CLOUDY    44  44 100 E5        29.73R
MARION*        CLOUDY    45  43  93 E6        29.72R FOG
HILLSVILLE*    CLOUDY    43  43 100 NE5       29.69R
RICHLANDS*     HAZE      46  29  52 NW3       29.70R VSB 3/4
WISE*          FOG       46  46 100 NW8       29.72R VSB<1/4
ABINGDON*      CLOUDY    56  51  82 N12       29.68R
$$

MDZ021>025-VAZ099-100-261600-
SOUTHERN MARYLAND AND THE DELMARVA PENINSULA

CITY           SKY/WX    TMP DP  RH WIND       PRES   REMARKS
PATUXENT RIVER PTSUNNY   51  41  68 NW7       29.71R
BAY BRIDGE APT   N/A    N/A N/A N/A N9        29.72R
LEONARDTOWN    NOT AVBL
DOVER          SUNNY     55  39  54 N9        29.66R
GEORGETOWN     SUNNY     55  41  59 VRB6      29.69R
EASTON         SUNNY     55  41  58 NE8       29.74R
CAMBRIDGE      SUNNY     54  43  66 NW6       29.70R
SALISBURY      MOSUNNY   52  41  66 NW6       29.69R
OCEAN CITY     MOSUNNY   53  40  61 NE6       29.69R
WALLOPS ISLAND CLOUDY    51  43  74 NW7       29.69R
ACCOMACK*      PTSUNNY   50  27  40 N7        29.70R
$$

NCZ012>017-030>032-261600-
NORTH CENTRAL AND EASTERN NORTH CAROLINA

CITY           SKY/WX    TMP DP  RH WIND       PRES   REMARKS
ROANOKE RAPIDS CLOUDY    50  46  87 NE8       29.70R
RALEIGH        CLOUDY    48  45  89 NE8       29.70R
ELIZABETH CITY CLOUDY    50  46  86 N12       29.67R
AHOSKIE*       CLOUDY    49  46  90 N10       29.70R
EDENTON*       CLOUDY    48  46  93 N8        29.68R
CURRITUCK*     DRIZZLE   49  47  90 N9        29.67R
KILL DEVIL HLS CLOUDY    50  50 100 N10G16    29.63S
MANTEO         CLOUDY    50  49  95 N16       29.64S
CAPE HATTERAS  LGT RAIN  53  52  96 N10G20    29.60R
TARBORO*       CLOUDY    50  47  92 N5        29.70S
GOLDSBORO      CLOUDY    51  50  96 NE6       29.65S
WASHINGTON     CLOUDY    48  47  95 N8        29.68R FOG
GREENVILLE     CLOUDY    50  48  93 NE7       29.72R
NEW BERN       CLOUDY    52  49  89 N12       29.68R FOG
WILMINGTON     CLOUDY    59  57  93 N9        29.63R
$$

VAZ048-261600-
ELSEWHERE

CITY           SKY/WX    TMP DP  RH WIND       PRES   REMARKS
HARRISBURG PA  MOSUNNY   55  28  35 CALM      29.73S
BALTIMORE      MOSUNNY   56  31  38 N3        29.71R
ANNAPOLIS      SUNNY     53  33  46 N6        29.71R
ANDREWS AFB    PTSUNNY   53  38  56 N7        29.71R
PHILADELPHIA   MOSUNNY   57  33  40 NE9G18    29.72R
HENDERSON NC   CLOUDY    47  44  88 N6        29.71R
GREENSBORO     DRIZZLE   45  42  89 NE9       29.72R
ROCKY MOUNT    CLOUDY    50  48  93 N7        29.70R
$$

VAZ100-261600-
MARINE

STATION/POSITION TIME  TEMP    WIND        PRES    WAVE   SWELL
                       AIR SEA DIR/SP/G            HT/PER HT/PER
                 (UTC) (F)     (DEG/KT/KT) (MB)    (FT/S) (FT/S)
BRANDYWINE LGT   1400   47 52   50/  9/ 11 1005.2
CAPE MAY NJ      1400   52 55   30/  4/  7 1004.5R
LEWES DE         1400   49 51   20/  8/  9 1004.9R
15NM E FENWICK I 1450   48 47              1004.8R   1/11
OCEAN-CITY-INLET 1400   46 49  350/  8/ 11 1004.5R
WACHAPREAGUE VA  1400   46 53   20/  4/  8 1004.9R
THOMAS POINT MD  1500   50 51  360/ 10/ 11 1007.0R
GOOSES REEF MD   1500   49 53  360/ 10/ 12   N/A     1/ 2
COVE POINT MD    1400   46     350/ 12/ 14 1006.3R
SOLOMONS ISLAND  1400      54                N/A
BISHOPS HEAD MD  1400   49 53  320/  6/ 11 1005.1R
PINEY POINT MD   1400          330/  7/  8   N/A
CAMBRIDGE MD     1400   49 57  300/  6/  9 1005.4R
LEWISETTA VA     1400   49 55              1005.5R
RAPPAHANNOCK LGT 1400           10/ 10/ 12 1005.7R
YORK RVR RNG VA  1400   49      60/ 15/ 18 1004.6R
YORKTOWN VA      1400   49 58   40/ 10/ 13 1005.1R
JAMESTOWN VA     1500   49 63   50/  6/ 10 1005.0R
DOMINION TERM VA 1400   49      30/  6/  9 1004.8S
KIPTOPEKE VA     1400      61   40/ 11/ 14   N/A
CHES BAY BRIDGE  1400   48 54   20/ 14/ 16 1003.9F
CAPE HENRY VA    1400   48      30/ 15/ 18 1003.0S
CHESAPEAKE LGHT  1400   47      30/ 14/ 15 1004.4S
WILLOUBY STN VA  1400   48      30/ 13/ 15 1005.3R
S CRANEY ISL VA  1400           30/ 12/ 14 1004.4F
CAPE HENRY BUOY  1428      51                N/A     4/ 5
1ST LANDING BUOY 1500                      1005.0R   2/ 3
OFFSHORE WE BUOY 1411      50                N/A     5/ 6   3/ 7
64NM E OF VA BCH 1450   54 59   20/ 17/ 21 1002.1S   5/ 6   2/ 8
DUCK PIER NC     1400   50 54   10/ 15/ 18 1002.5R
44056 DUCK FRF   1411      54                N/A     5/ 6
OREGON INLET NC  1400   51 54  360/ 12/ 17 1002.2R
HATTERAS NC      1400   55 65   20/ 14/ 16 1001.3R
DIAMOND SHLS NC  1450   60 73  360/ 16/ 17 1001.4R   4/ 7   3/ 7
CAPE LOOKOUT NC  1500   55     350/ 16/ 19 1002.9R
$$


USA.gov is the U.S. government's official web portal to all federal, state and local government web resources and services.